Location: Unspecified
(0.0000°N, 0.0000°E)
Time: 03:04:37
(UTC+02:00)

NATO 3D Rocket - Visible Passes

Search period start: 30 April 2017 00:00
Search period end: 10 May 2017 00:00
Orbit: 670 x 2296 km, 21.5° (Epoch: 28 April)

Date Brightness Start Highest point End Pass type
(mag) Time Alt. Az. Time Alt. Az. Time Alt. Az.
30 Apr 6.6 05:07:54 16° NNW 05:11:24 20° N 05:19:04 10° NE visible
30 Apr 6.9 07:08:26 10° NW 07:18:14 34° NNE 07:30:10 10° ENE visible
30 Apr 4.5 21:55:01 10° WSW 21:57:57 33° SW 21:57:57 33° SW visible
01 May 6.8 04:14:23 16° NNE 04:14:23 16° NNE 04:18:37 10° NE visible
01 May 6.8 06:11:23 10° NW 06:19:30 28° NNE 06:29:43 10° ENE visible
01 May 3.9 20:57:46 10° SW 21:02:59 41° SSE 21:04:54 28° ESE visible
02 May 6.5 05:16:29 15° NNW 05:21:02 21° NNE 05:29:03 10° ENE visible
02 May 6.6 07:17:14 10° NW 07:27:16 43° NNE 07:39:55 10° E visible
02 May 4.4 22:04:05 10° WSW 22:07:30 40° W 22:07:30 40° W visible
03 May 6.7 04:23:05 16° NNE 04:23:05 16° NNE 04:28:20 10° NE visible
03 May 6.6 06:20:18 10° NW 06:28:43 33° NNE 06:39:42 10° E visible
03 May 3.3 21:06:31 10° WSW 21:12:18 76° SSE 21:14:31 32° ENE visible
04 May 6.4 05:25:19 15° NNW 05:30:27 25° NNE 05:39:11 10° ENE visible
04 May 6.2 07:26:01 10° NW 07:36:07 54° NNE 07:49:21 10° E visible
04 May 4.9 22:13:34 10° W 22:17:10 33° WNW 22:17:10 33° WNW visible
05 May 6.5 04:32:03 18° NNE 04:32:25 18° NNE 04:38:32 10° ENE visible
05 May 6.2 06:29:06 10° NW 06:37:43 42° NNE 06:49:24 10° E visible
05 May 3.9 21:15:37 10° WSW 21:21:31 60° NNW 21:24:14 25° NE visible
06 May 6.2 05:34:26 18° NNW 05:39:37 32° NNE 05:49:10 10° E visible
06 May 3.8 20:17:25 10° WSW 20:24:32 89° NNW 20:29:43 10° ENE visible
06 May 5.5 22:23:32 10° WNW 22:26:54 22° NW 22:26:54 22° NW visible
07 May 6.2 04:41:18 22° NNE 04:41:47 22° NNE 04:48:49 10° ENE visible
07 May 5.7 06:37:57 10° NW 06:46:34 56° NNE 06:58:44 10° E visible
07 May 4.9 21:25:06 10° W 21:30:39 35° NNW 21:33:57 17° NNE visible
08 May 7.0 03:48:15 10° NE 03:48:15 10° NE 03:48:21 10° NE visible
08 May 5.8 05:43:49 22° NNW 05:48:37 42° NNE 05:58:51 10° E visible
08 May 4.6 20:26:30 10° W 20:33:39 54° NNW 20:38:51 10° NE visible
08 May 6.0 22:34:11 10° NW 22:36:35 14° NNW 22:36:35 14° NNW visible
09 May 5.9 04:50:49 30° NNE 04:50:57 30° NNE 04:58:53 10° E visible
09 May 5.3 06:46:56 10° WNW 06:55:23 75° NNE 07:07:41 10° ESE visible
09 May 5.7 21:35:04 10° WNW 21:39:49 22° NNW 21:43:35 11° NNE visible
